{"data":{"norad_id":52453,"epoch":"2026-05-25T03:29:42.386208Z","epoch_age_seconds":69317,"freshness":"FRESH","line1":"1 52453U 22049C   26145.14562947 -.00002881  00000+0 -16298-3 0  9991","line2":"2 52453  53.2131  85.8920 0002133  98.4526 261.6708 15.08829153223651","mean_motion":15.08829153,"eccentricity":0.0002133,"inclination_deg":53.2131,"raan_deg":85.892,"arg_perigee_deg":98.4526,"mean_anomaly_deg":261.6708,"bstar":-0.00016298,"rev_number":22365,"period_min":95.438240780068,"perigee_km":538.30095314336,"apogee_km":541.25213506128,"semimajor_km":6917.9135441023,"source":"CELESTRAK","updated_at":"2026-05-25T13:38:17.124189Z"}}